Location: Hlohovi?ky
(49.8934°N, 13.6739°E)
Time: 17:23:44
(UTC+00:00)

SL-16 R/B - Pass Details

Date: 19 May 2025
Orbit: 841 x 844 km, 71.0° (Epoch: 17 June)

Event Time Altitude Azimuth Distance (km) Brightness Sun altitude
Rises 22:41:23 0° 328° (NNW) 3,414 6.4 -20.0°
Reaches altitude 10° 22:43:53 10° 324° (NW) 2,475 5.5 -20.0°
Maximum altitude 22:49:24 55° 249° (WSW) 1,015 2.4 -20.1°
Enters shadow 22:51:17 38° 194° (SSW) 1,274 2.6 -20.1°
